UAL404 KIAH-KEWR

Flight info

Callsign UAL404
Flight time N/A
Altitude 31000
Route LURIC8 HAWES SUTTN J29 CARIN MEMFS Q29 DORET J584 SLT FQM3
Aircraft A21N/M-SDE2E3FGHIRWXY/LB1

Departure

Time N/A
Airport George Bush Intercontinental Airport (KIAH)

Arrival

Time 2026-05-04 03:00
Airport Newark Liberty International Airport (KEWR)
Time Latitude Longitude Altitude Speed Heading
2026-05-04 01:53 40.83091 -83.08597 31015 ft 474 kts 47°
2026-05-04 01:54 40.87127 -83.01684 31011 ft 473 kts 47°
2026-05-04 01:54 40.91127 -82.94817 31000 ft 474 kts 47°
2026-05-04 01:55 40.95142 -82.87927 30998 ft 471 kts 47°
2026-05-04 01:55 40.99123 -82.81090 30990 ft 471 kts 47°
2026-05-04 01:56 41.03158 -82.74201 30993 ft 472 kts 47°
2026-05-04 01:56 41.07148 -82.67338 30982 ft 473 kts 47°
2026-05-04 01:57 41.11157 -82.60401 30997 ft 473 kts 48°
2026-05-04 01:57 41.14911 -82.53286 30980 ft 476 kts 56°
2026-05-04 01:58 41.18070 -82.45504 30974 ft 477 kts 57°
2026-05-04 01:58 41.21172 -82.37777 30976 ft 477 kts 58°
2026-05-04 01:59 41.24318 -82.29985 30973 ft 477 kts 58°
2026-05-04 01:59 41.27453 -82.22177 30970 ft 477 kts 58°
2026-05-04 02:00 41.30567 -82.14419 30978 ft 477 kts 58°
2026-05-04 02:00 41.33684 -82.06619 30972 ft 477 kts 58°
2026-05-04 02:01 41.36414 -81.98511 30963 ft 480 kts 63°
2026-05-04 02:01 41.39009 -81.90380 30960 ft 480 kts 63°
2026-05-04 02:02 41.41623 -81.82183 30961 ft 480 kts 63°
2026-05-04 02:02 41.44221 -81.74027 30960 ft 480 kts 63°
2026-05-04 02:03 41.46830 -81.65797 30965 ft 480 kts 63°
2026-05-04 02:03 41.49414 -81.57615 30962 ft 479 kts 63°
2026-05-04 02:04 41.52003 -81.49429 30947 ft 480 kts 63°
2026-05-04 02:04 41.54586 -81.41184 30954 ft 480 kts 64°
2026-05-04 02:05 41.57157 -81.32989 30954 ft 480 kts 63°
2026-05-04 02:05 41.59728 -81.24747 30967 ft 480 kts 64°
2026-05-04 02:06 41.62307 -81.16507 30954 ft 480 kts 64°
2026-05-04 02:06 41.64849 -81.08281 30961 ft 480 kts 64°
2026-05-04 02:07 41.67390 -81.00060 30953 ft 480 kts 64°
2026-05-04 02:07 41.69941 -80.91799 30950 ft 480 kts 64°
2026-05-04 02:08 41.72499 -80.83509 30952 ft 480 kts 64°
2026-05-04 02:08 41.75024 -80.75276 30950 ft 480 kts 64°
2026-05-04 02:09 41.77564 -80.66973 30950 ft 480 kts 64°
2026-05-04 02:09 41.79565 -80.58486 30958 ft 486 kts 79°
2026-05-04 02:10 41.79702 -80.53944 30961 ft 490 kts 92°
2026-05-04 02:10 41.79316 -80.49392 30965 ft 491 kts 97°
2026-05-04 02:10 41.78332 -80.40327 30960 ft 491 kts 97°
2026-05-04 02:11 41.77399 -80.31291 30961 ft 491 kts 96°
2026-05-04 02:11 41.76481 -80.22204 30961 ft 491 kts 96°
2026-05-04 02:12 41.75563 -80.13172 30965 ft 491 kts 96°
2026-05-04 02:12 41.74634 -80.04132 30966 ft 491 kts 97°
2026-05-04 02:13 41.73722 -79.95258 30975 ft 491 kts 97°
2026-05-04 02:13 41.72781 -79.86182 30981 ft 491 kts 97°
2026-05-04 02:14 41.71817 -79.77155 30987 ft 492 kts 97°
2026-05-04 02:14 41.70861 -79.68115 30996 ft 492 kts 97°
2026-05-04 02:15 41.69893 -79.59042 30997 ft 492 kts 97°
2026-05-04 02:15 41.68913 -79.49966 30997 ft 492 kts 97°
2026-05-04 02:16 41.67935 -79.40951 30996 ft 492 kts 97°
2026-05-04 02:16 41.66929 -79.31853 30990 ft 493 kts 97°
2026-05-04 02:17 41.65933 -79.22819 30991 ft 493 kts 97°
2026-05-04 02:17 41.64927 -79.13732 30991 ft 493 kts 97°
2026-05-04 02:18 41.63910 -79.04702 30983 ft 494 kts 98°
2026-05-04 02:18 41.62878 -78.95583 30986 ft 495 kts 97°
2026-05-04 02:19 41.61853 -78.86552 30986 ft 494 kts 98°
2026-05-04 02:19 41.60814 -78.77486 30979 ft 494 kts 98°
2026-05-04 02:20 41.59759 -78.68404 30976 ft 494 kts 98°
2026-05-04 02:20 41.58875 -78.60816 30974 ft 495 kts 98°
2026-05-04 02:21 41.57826 -78.51753 30974 ft 496 kts 98°
2026-05-04 02:21 41.56754 -78.42652 30975 ft 495 kts 98°
2026-05-04 02:22 41.55672 -78.33597 30983 ft 495 kts 98°
2026-05-04 02:22 41.54583 -78.24524 30976 ft 495 kts 98°
2026-05-04 02:23 41.53494 -78.15419 30979 ft 495 kts 98°
2026-05-04 02:23 41.52399 -78.06378 30973 ft 495 kts 98°
2026-05-04 02:24 41.51313 -77.97542 30977 ft 495 kts 99°
2026-05-04 02:24 41.50065 -77.88552 30979 ft 496 kts 100°
2026-05-04 02:25 41.48771 -77.79465 30979 ft 497 kts 100°
2026-05-04 02:25 41.47487 -77.70374 30979 ft 497 kts 100°
2026-05-04 02:26 41.46193 -77.61336 30974 ft 497 kts 100°
2026-05-04 02:26 41.44892 -77.52269 30974 ft 498 kts 100°
2026-05-04 02:27 41.43588 -77.43230 30962 ft 497 kts 100°
2026-05-04 02:27 41.42276 -77.34237 30959 ft 494 kts 100°
2026-05-04 02:28 41.40942 -77.25169 30966 ft 499 kts 100°
2026-05-04 02:28 41.39614 -77.16120 30964 ft 501 kts 100°
2026-05-04 02:29 41.38258 -77.06999 30968 ft 501 kts 101°
2026-05-04 02:29 41.36913 -76.97938 30968 ft 500 kts 101°
2026-05-04 02:30 41.35557 -76.88852 30967 ft 501 kts 101°
2026-05-04 02:30 41.34164 -76.79722 30954 ft 502 kts 101°
2026-05-04 02:31 41.32099 -76.70910 30955 ft 502 kts 110°
2026-05-04 02:31 41.29747 -76.62165 30935 ft 499 kts 110°
2026-05-04 02:32 41.28776 -76.58561 30625 ft 498 kts 110°
2026-05-04 02:32 41.27620 -76.54259 30315 ft 501 kts 110°
2026-05-04 02:32 41.26453 -76.49902 30055 ft 502 kts 109°
2026-05-04 02:32 41.25272 -76.45525 29759 ft 502 kts 110°
2026-05-04 02:33 41.24072 -76.41149 29456 ft 503 kts 110°
2026-05-04 02:33 41.22877 -76.36774 29173 ft 503 kts 110°
2026-05-04 02:33 41.21689 -76.32393 28901 ft 503 kts 110°
2026-05-04 02:33 41.20520 -76.28055 28626 ft 503 kts 109°
2026-05-04 02:34 41.19339 -76.23666 28355 ft 504 kts 110°
2026-05-04 02:34 41.18152 -76.19286 28081 ft 504 kts 110°
2026-05-04 02:34 41.16960 -76.14909 27813 ft 504 kts 110°
2026-05-04 02:34 41.15767 -76.10517 27553 ft 505 kts 110°
2026-05-04 02:35 41.14576 -76.06157 26934 ft 501 kts 110°
2026-05-04 02:35 41.13389 -76.01867 26062 ft 499 kts 110°
2026-05-04 02:35 41.12184 -75.97488 25164 ft 499 kts 110°
2026-05-04 02:35 41.11009 -75.93221 24322 ft 498 kts 110°
2026-05-04 02:36 41.09813 -75.88897 23550 ft 497 kts 110°
2026-05-04 02:36 41.08625 -75.84616 22758 ft 493 kts 110°
2026-05-04 02:36 41.07458 -75.80345 22142 ft 495 kts 110°
2026-05-04 02:36 41.06283 -75.76059 21752 ft 495 kts 110°
2026-05-04 02:37 41.05093 -75.71774 21406 ft 492 kts 110°
2026-05-04 02:37 41.03910 -75.67548 20943 ft 486 kts 111°
2026-05-04 02:37 41.02739 -75.63382 20364 ft 478 kts 111°
2026-05-04 02:37 41.01600 -75.59275 19770 ft 471 kts 110°
2026-05-04 02:38 41.00542 -75.55437 19223 ft 465 kts 110°
2026-05-04 02:38 40.99425 -75.51420 18652 ft 459 kts 111°
2026-05-04 02:38 40.98330 -75.47472 18038 ft 455 kts 111°
2026-05-04 02:38 40.97232 -75.43546 17354 ft 452 kts 111°
2026-05-04 02:39 40.96145 -75.39652 16772 ft 453 kts 111°
2026-05-04 02:39 40.95042 -75.35737 16240 ft 453 kts 111°
2026-05-04 02:39 40.93945 -75.31853 15727 ft 447 kts 111°
2026-05-04 02:39 40.92860 -75.28024 15203 ft 442 kts 111°
2026-05-04 02:40 40.91804 -75.24286 14741 ft 437 kts 111°
2026-05-04 02:40 40.90744 -75.20539 14319 ft 430 kts 111°
2026-05-04 02:40 40.89706 -75.16856 13921 ft 424 kts 111°
2026-05-04 02:40 40.88679 -75.13229 13500 ft 419 kts 111°
2026-05-04 02:41 40.87660 -75.09639 12969 ft 415 kts 110°
2026-05-04 02:41 40.86648 -75.06072 12456 ft 413 kts 110°
2026-05-04 02:41 40.85651 -75.02525 11958 ft 408 kts 110°
2026-05-04 02:41 40.84685 -74.99111 11635 ft 395 kts 109°
2026-05-04 02:42 40.83736 -74.95768 11393 ft 382 kts 109°
2026-05-04 02:42 40.82824 -74.92540 11168 ft 368 kts 109°
2026-05-04 02:42 40.81943 -74.89422 10977 ft 355 kts 109°
2026-05-04 02:42 40.81094 -74.86422 10787 ft 342 kts 109°
2026-05-04 02:43 40.80267 -74.83540 10625 ft 330 kts 109°
2026-05-04 02:43 40.79466 -74.80765 10459 ft 318 kts 109°
2026-05-04 02:43 40.78676 -74.78023 10330 ft 319 kts 109°
2026-05-04 02:43 40.77896 -74.75315 10193 ft 319 kts 109°
2026-05-04 02:44 40.77109 -74.72568 10079 ft 318 kts 108°
2026-05-04 02:44 40.76323 -74.69824 9953 ft 318 kts 108°
2026-05-04 02:44 40.75541 -74.67092 9829 ft 318 kts 108°
2026-05-04 02:44 40.74769 -74.64402 9693 ft 317 kts 108°
2026-05-04 02:45 40.73989 -74.61683 9551 ft 316 kts 108°
2026-05-04 02:45 40.73222 -74.58986 9399 ft 312 kts 108°
2026-05-04 02:45 40.72457 -74.56294 9262 ft 313 kts 108°
2026-05-04 02:45 40.71696 -74.53618 9128 ft 312 kts 109°
2026-05-04 02:46 40.70930 -74.50938 8998 ft 311 kts 108°
2026-05-04 02:46 40.70453 -74.48182 8858 ft 307 kts 93°
2026-05-04 02:46 40.70449 -74.45426 8732 ft 303 kts 80°
2026-05-04 02:46 40.70704 -74.42667 8609 ft 302 kts 78°
2026-05-04 02:47 40.70996 -74.39933 8494 ft 301 kts 77°
2026-05-04 02:47 40.71289 -74.37183 8367 ft 302 kts 77°
2026-05-04 02:47 40.71581 -74.34439 8241 ft 302 kts 77°
2026-05-04 02:47 40.71871 -74.31697 8118 ft 301 kts 77°
2026-05-04 02:48 40.72157 -74.28963 7976 ft 301 kts 77°
2026-05-04 02:48 40.72445 -74.26233 7848 ft 301 kts 77°
2026-05-04 02:48 40.72734 -74.23535 7722 ft 301 kts 77°
2026-05-04 02:48 40.73029 -74.20814 7602 ft 299 kts 77°
2026-05-04 02:49 40.73325 -74.18083 7474 ft 299 kts 77°
2026-05-04 02:49 40.73620 -74.15361 7350 ft 299 kts 77°
2026-05-04 02:49 40.73916 -74.12684 7234 ft 298 kts 77°
2026-05-04 02:49 40.74218 -74.09977 7111 ft 298 kts 77°
2026-05-04 02:50 40.74523 -74.07274 6987 ft 298 kts 77°
2026-05-04 02:50 40.74827 -74.04559 6968 ft 297 kts 77°
2026-05-04 02:50 40.75129 -74.01892 6982 ft 297 kts 77°
2026-05-04 02:50 40.75431 -73.99195 7003 ft 296 kts 77°
2026-05-04 02:51 40.75717 -73.96499 7004 ft 297 kts 77°
2026-05-04 02:51 40.76002 -73.93794 6992 ft 297 kts 77°
2026-05-04 02:51 40.76116 -73.92715 6995 ft 298 kts 77°
2026-05-04 02:51 40.76311 -73.90916 6992 ft 296 kts 76°
2026-05-04 02:52 40.76978 -73.88416 6982 ft 285 kts 52°
2026-05-04 02:52 40.78248 -73.86492 6981 ft 274 kts 31°
2026-05-04 02:52 40.79880 -73.85335 6985 ft 262 kts 11°
2026-05-04 02:52 40.81620 -73.84957 6767 ft 252 kts 353°
2026-05-04 02:53 40.83330 -73.85343 6233 ft 248 kts 336°
2026-05-04 02:53 40.84830 -73.86408 5796 ft 243 kts 319°
2026-05-04 02:53 40.85867 -73.88112 5372 ft 239 kts 294°
2026-05-04 02:53 40.86163 -73.90255 4951 ft 239 kts 271°
2026-05-04 02:54 40.86031 -73.92452 4532 ft 241 kts 268°
2026-05-04 02:54 40.85852 -73.94624 4121 ft 239 kts 267°
2026-05-04 02:54 40.85688 -73.96730 3725 ft 240 kts 267°
2026-05-04 02:54 40.85533 -73.98910 3324 ft 234 kts 267°
2026-05-04 02:55 40.85291 -74.02960 2571 ft 207 kts 267°
2026-05-04 02:55 40.85197 -74.04777 2234 ft 195 kts 266°
2026-05-04 02:55 40.84885 -74.06478 2006 ft 192 kts 246°
2026-05-04 02:56 40.83974 -74.07770 1969 ft 202 kts 211°
2026-05-04 02:56 40.82660 -74.08399 2037 ft 192 kts 203°
2026-05-04 02:56 40.81490 -74.08862 2009 ft 170 kts 206°
2026-05-04 02:56 40.80454 -74.09392 1956 ft 150 kts 211°
2026-05-04 02:57 40.79484 -74.09973 2017 ft 158 kts 212°
2026-05-04 02:57 40.78508 -74.10577 1935 ft 150 kts 213°
2026-05-04 02:57 40.77632 -74.11126 1756 ft 130 kts 212°
2026-05-04 02:57 40.76839 -74.11650 1511 ft 130 kts 216°
2026-05-04 02:58 40.75997 -74.12192 1353 ft 133 kts 209°
2026-05-04 02:58 40.75146 -74.12656 1276 ft 132 kts 210°
2026-05-04 02:58 40.74331 -74.13187 1084 ft 132 kts 213°
2026-05-04 02:58 40.73518 -74.13766 854 ft 134 kts 210°
2026-05-04 02:59 40.72674 -74.14316 710 ft 134 kts 207°
2026-05-04 02:59 40.71835 -74.14845 478 ft 133 kts 206°
2026-05-04 02:59 40.71001 -74.15362 328 ft 132 kts 206°
2026-05-04 02:59 40.70171 -74.15879 152 ft 133 kts 208°
2026-05-04 03:00 40.69360 -74.16403 46 ft 123 kts 207°
2026-05-04 03:00 40.68655 -74.16853 27 ft 86 kts 206°
2026-05-04 03:00 40.68352 -74.17048 28 ft 30 kts 205°
2026-05-04 03:00 40.68179 -74.17157 27 ft 23 kts 206°
2026-05-04 03:01 40.68167 -74.17164 27 ft 0 kts 206°
2026-05-04 03:01 40.68166 -74.17165 27 ft 2 kts 206°
2026-05-04 03:01 40.68142 -74.17181 27 ft 6 kts 206°
2026-05-04 03:01 40.68095 -74.17212 27 ft 10 kts 206°
2026-05-04 03:02 40.68026 -74.17266 26 ft 13 kts 219°
2026-05-04 03:02 40.67966 -74.17377 27 ft 17 kts 250°
2026-05-04 03:02 40.67965 -74.17540 29 ft 19 kts 275°
2026-05-04 03:02 40.67990 -74.17650 26 ft 13 kts 294°
2026-05-04 03:03 40.68031 -74.17761 27 ft 12 kts 303°
2026-05-04 03:03 40.68092 -74.17752 27 ft 10 kts 17°
2026-05-04 03:03 40.68158 -74.17690 27 ft 14 kts 60°
2026-05-04 03:03 40.68177 -74.17670 27 ft 4 kts 18°
2026-05-04 03:04 40.68275 -74.17627 27 ft 19 kts 18°
2026-05-04 03:04 40.68372 -74.17573 28 ft 13 kts 24°
2026-05-04 03:04 40.68460 -74.17519 28 ft 15 kts 25°
2026-05-04 03:04 40.68558 -74.17458 28 ft 16 kts 25°
2026-05-04 03:05 40.68664 -74.17393 29 ft 17 kts 25°
2026-05-04 03:05 40.68777 -74.17322 28 ft 19 kts 25°
2026-05-04 03:05 40.68897 -74.17247 28 ft 20 kts 25°
2026-05-04 03:05 40.69021 -74.17169 27 ft 21 kts 27°
2026-05-04 03:06 40.69152 -74.17082 27 ft 22 kts 26°
2026-05-04 03:06 40.69292 -74.16994 27 ft 23 kts 17°
2026-05-04 03:06 40.69453 -74.16976 27 ft 24 kts 359°
2026-05-04 03:06 40.69620 -74.17013 27 ft 25 kts 341°
2026-05-04 03:07 40.69777 -74.17121 27 ft 26 kts 322°
2026-05-04 03:07 40.69909 -74.17291 27 ft 27 kts 303°
2026-05-04 03:07 40.69965 -74.17471 27 ft 17 kts 276°
2026-05-04 03:07 40.69968 -74.17636 27 ft 19 kts 247°
2026-05-04 03:08 40.69920 -74.17755 27 ft 9 kts 243°
2026-05-04 03:08 40.69908 -74.17785 27 ft 0 kts 243°